TimeGMT,TemperatureF,Dew PointF,Humidity,Sea Level PressureIn,VisibilityMPH,Wind Direction,Wind SpeedMPH,Gust SpeedMPH,PrecipitationIn,Events,Conditions,WindDirDegrees,DateUTC
12:50 AM,32.0,32.0,100,30.18,6.2,ESE,2.3,-,N/A,,Partly Cloudy,110,2013-02-16 00:50:00
1:50 AM,28.4,28.4,100,30.18,0.7,SSW,1.2,-,N/A,,Partly Cloudy,210,2013-02-16 01:50:00
2:50 AM,29,29,100,30.20,3,West,3.5,,,Fog,Fog,260,2013-02-16 02:50:00
2:50 AM,28.4,28.4,100,30.18,3.1,West,3.5,-,N/A,,Partly Cloudy,260,2013-02-16 02:50:00
3:50 AM,28.4,28.4,100,30.15,5.6,Calm,Calm,-,N/A,,Partly Cloudy,0,2013-02-16 03:50:00
4:50 AM,32.0,32.0,100,30.18,5.6,SE,1.2,-,N/A,,Mostly Cloudy,130,2013-02-16 04:50:00
5:50 AM,28,28,99,30.21,0,ENE,1.2,,,Fog,Fog,70,2013-02-16 05:50:00
5:50 AM,28.4,28.4,100,30.18,0.2,ENE,1.2,-,N/A,Fog,Fog,70,2013-02-16 05:50:00
6:50 AM,26.6,26.6,100,30.18,0.1,Calm,Calm,-,N/A,Fog,Fog,0,2013-02-16 06:50:00
7:50 AM,26.6,26.6,100,30.18,1.9,NNE,2.3,-,N/A,,Unknown,30,2013-02-16 07:50:00
8:50 AM,32,32,98,30.22,2,WSW,2.3,,,Fog,Fog,240,2013-02-16 08:50:00
8:50 AM,32.0,32.0,100,30.18,1.7,WSW,2.3,-,N/A,,Mostly Cloudy,240,2013-02-16 08:50:00
9:50 AM,35.6,30.2,81,30.18,4.3,SE,1.2,-,N/A,,Haze,140,2013-02-16 09:50:00
10:50 AM,39.2,37.4,93,30.21,6.2,East,2.3,-,N/A,,Overcast,80,2013-02-16 10:50:00
11:50 AM,43,39,79,30.22,12,SE,2.3,,,,Overcast,130,2013-02-16 11:50:00
11:50 AM,42.8,39.2,87,30.18,6.2,SE,2.3,-,N/A,,Overcast,130,2013-02-16 11:50:00
12:50 PM,46.4,37.4,71,30.18,6.2,South,9.2,-,N/A,,Overcast,170,2013-02-16 12:50:00
1:50 PM,46.4,37.4,71,30.18,6.2,South,8.1,-,N/A,,Overcast,180,2013-02-16 13:50:00
2:50 PM,46,37,60,30.18,19,South,9.2,,,,Overcast,180,2013-02-16 14:50:00
2:50 PM,46.4,37.4,71,30.15,6.2,South,9.2,-,N/A,,Overcast,180,2013-02-16 14:50:00
3:50 PM,46.4,37.4,71,30.15,6.2,South,5.8,-,N/A,,Partly Cloudy,170,2013-02-16 15:50:00
4:50 PM,44.6,37.4,76,30.15,6.2,South,5.8,-,N/A,,Partly Cloudy,170,2013-02-16 16:50:00
5:50 PM,44,38,72,30.17,11,SSE,5.8,,,,Mostly Cloudy,150,2013-02-16 17:50:00
5:50 PM,44.6,37.4,76,30.15,6.2,SSE,5.8,-,N/A,,Mostly Cloudy,150,2013-02-16 17:50:00
6:50 PM,44.6,37.4,76,30.15,6.2,SSE,3.5,-,N/A,,Overcast,160,2013-02-16 18:50:00
7:50 PM,42.8,37.4,81,30.15,6.2,SE,5.8,-,N/A,,Mostly Cloudy,140,2013-02-16 19:50:00
8:50 PM,43,39,80,30.18,9,SSE,3.5,,,,Overcast,150,2013-02-16 20:50:00
8:50 PM,42.8,39.2,87,30.15,6.2,SSE,3.5,-,N/A,,Overcast,150,2013-02-16 20:50:00
9:50 PM,42.8,39.2,87,30.15,6.2,SSE,4.6,-,N/A,,Overcast,150,2013-02-16 21:50:00
10:50 PM,42.8,39.2,87,30.15,5.6,SSE,5.8,-,N/A,,Haze,150,2013-02-16 22:50:00
11:50 PM,42,40,88,30.17,4,SSE,8.1,,,,Mist,160,2013-02-16 23:50:00
11:50 PM,42.8,39.2,87,30.15,4.3,SSE,8.1,-,N/A,,Haze,160,2013-02-16 23:50:00